Погода в Нове Место над Метуйи

Чехия     50°21′02″N   16°09′02″E
темп.,
°C
ветер,
м/с
пор.,
м/с
влажн.,
%
обл.,
%
осадки,
мм/ч
давл.,
гПа
погр.,
м
18 апреля, вс
вс1823:00+2зсз1197100 0.0 102177
02:00+3с1297100 0.0 102068
05:00+3с1196100 0.0 102018
08:00+3ссз0192100 0.0 1020103
11:00+7ссв237299 0.1 1019983
14:00+9св346294 0.3 10181332
17:00+9св4465100 0.2 1018947
20:00+5всв2385100 0.3 101943
19 апреля, пн
пн1923:00+3всв2293100 0.0 102031
02:00+3всв2291100 0.0 102035
05:00+3св2289100 0.0 101940
08:00+6св2679100 0.0 1019378
11:00+10св4665100 0.0 10171077
14:00+10ссв5668100 0.2 10171085
17:00+7ссв2486100 0.4 1016472
20:00+6с1193100 0.4 101625
20 апреля, вт
вт2023:00+5ссв2294100 0.1 101638
02:00+4св359592 0.1 101692
05:00+3св229515 0.0 101635
08:00+6св278284 0.0 1016497
11:00+10св466031 0.1 10151493
14:00+11ссв345485 0.4 10141605
17:00+12ссв345370 0.4 10141470
20:00+7св228117 0.8 101513
21 апреля, ср
ср2123:00+5всв11875 0.0 101610
02:00+4вюв11885 0.0 101610
05:00+3ююв11905 0.0 101610
08:00+6з1284100 0.1 1016215
11:00+8зюз248025 1.3 1016563
14:00+12з465629 1.6 10141635
17:00+13з565110 0.1 10131612
20:00+7зсз2266100 0.1 101511
22 апреля, чт
чт2223:00+5з017394 0.0 101610
02:00+5ююз2793100 1.1 1017317
05:00+5з4795100 0.6 1017624
08:00+3з4777100 0.7 1020484
11:00+5з6855100 0.0 10201223
14:00+8з694397 0.0 10192240
17:00+8зсз694488 0.0 10192183
20:00+3зсз387211 0.0 1021293